Durango, CO

6:56 AM MDT on September 22, 2019 (GMT -0600)
Durango-La Plata County

Weather History for KDRO - May, 2019

Change the Weather History Date:

Thursday, May 23, 2019

  Actual Average Record
Temperature  
Mean Temperature 44 °F 55 °F  
Max Temperature 57 °F 73 °F 89 °F (1984)
Min Temperature 31 °F 37 °F 25 °F (1998)
Degree Days  
Heating Degree Days 20 10  
Month to date heating degree days 383 302  
Since 1 July heating degree days 7189 6938  
Cooling Degree Days 0 0  
Month to date cooling degree days 0 0  
Year to date cooling degree days 0 0  
Moisture  
Dew Point 33 °F    
Average Humidity 71    
Maximum Humidity 100    
Minimum Humidity 36    
Precipitation  
Precipitation 0.02 in 0.01 in 0.29 in (1987)
Month to date precipitation 1.52 0.67  
Year to date precipitation 9.29 5.30  
Sea Level Pressure  
Sea Level Pressure 29.89 in    
Wind  
Wind Speed 9 mph ()    
Max Wind Speed 31 mph    
Max Gust Speed 45 mph    
Visibility 9.9 miles    
Events Rain    
T = Trace of Precipitation, MM = Missing Value Source: Averaged Metar Reports

Daily Weather History Graph

Daily Weather History Graph

Search for Another Location

Airport or City:

Astronomy

May. 23, 2019 Rise Set
Actual Time 5:56 AM MDT 8:18 PM MDT
Civil Twilight 5:27 AM MDT 8:48 PM MDT
Nautical Twilight 4:50 AM MDT 9:25 PM MDT
Astronomical Twilight 4:10 AM MDT 10:05 PM MDT
Moon 12:03 AM MDT (5/23) 10:03 AM MDT (5/23)
Length of Visible Light 15h 21m
Length of Day
14h 22m
Waning Gibbous, 77% of the Moon is Illuminated
May 23
Waning Gibbous
May 26
Last Quarter
Jun 3
New
Jun 10
First Quarter
Jun 17
Full

Hourly Weather History & Observations

Time (MDT) Temp. Windchill Dew Point Humidity Pressure Visibility Wind Dir Wind Speed Gust Speed Precip Events Conditions
12:53 AM 41.0 °F 38.0 °F 37.0 °F 86% 29.77 in 10.0 mi NNE 4.6 mph - N/A   Overcast
1:53 AM 39.9 °F - 36.0 °F 86% 29.76 in 10.0 mi Calm Calm - N/A   Mostly Cloudy
2:53 AM 37.0 °F - 35.1 °F 93% 29.78 in 10.0 mi Calm Calm - N/A   Scattered Clouds
3:53 AM 34.0 °F 29.8 °F 33.1 °F 96% 29.80 in 10.0 mi NNE 4.6 mph - N/A   Clear
4:53 AM 35.1 °F 29.3 °F 34.0 °F 96% 29.79 in 10.0 mi East 6.9 mph - N/A   Scattered Clouds
5:53 AM 37.0 °F 34.5 °F 35.1 °F 93% 29.79 in 10.0 mi ENE 3.5 mph - N/A   Overcast
6:53 AM 37.9 °F 34.4 °F 35.1 °F 89% 29.79 in 10.0 mi ENE 4.6 mph - N/A   Overcast
7:53 AM 46.0 °F 40.2 °F 35.1 °F 66% 29.76 in 10.0 mi SE 12.7 mph - N/A   Mostly Cloudy
8:53 AM 53.1 °F - 35.1 °F 50% 29.73 in 10.0 mi SE 11.5 mph 21.9 mph N/A   Overcast
9:53 AM 53.1 °F - 37.0 °F 55% 29.74 in 10.0 mi SE 6.9 mph - 0.00 in Rain Light Rain
10:53 AM 57.0 °F - 30.0 °F 36% 29.71 in 10.0 mi South 26.5 mph 40.3 mph 0.00 in   Scattered Clouds
11:32 AM 50.0 °F - 37.0 °F 61% 29.86 in 10.0 mi WSW 25.3 mph 42.6 mph N/A   Mostly Cloudy
11:53 AM 50.0 °F - 39.0 °F 66% 29.81 in 10.0 mi WSW 25.3 mph 36.8 mph N/A   Mostly Cloudy
12:17 PM 48.0 °F - 39.9 °F 74% 29.91 in 10.0 mi WSW 20.7 mph 34.5 mph 0.00 in Rain Light Rain
12:53 PM 43.0 °F 33.8 °F 37.0 °F 80% 29.90 in 10.0 mi SW 23.0 mph 35.7 mph 0.01 in Rain Light Rain
1:01 PM 44.1 °F 35.2 °F 37.9 °F 79% 29.95 in 10.0 mi WSW 23.0 mph 41.4 mph 0.00 in Rain Light Rain
1:17 PM 43.0 °F 34.5 °F 42.1 °F 97% 29.95 in 7.0 mi WSW 19.6 mph 40.3 mph 0.01 in Rain Light Rain
1:53 PM 44.1 °F 37.1 °F - N/A% 29.94 in 10.0 mi SSW 15.0 mph 21.9 mph 0.01 in Rain Light Rain
2:53 PM 48.0 °F - - N/A% 29.94 in 10.0 mi WSW 15.0 mph 25.3 mph 0.00 in   Overcast
3:53 PM 50.0 °F - - N/A% 29.95 in 10.0 mi SW 19.6 mph 26.5 mph N/A   Mostly Cloudy
4:53 PM 48.9 °F - 26.1 °F 41% 29.97 in 10.0 mi SSW 18.4 mph 38.0 mph N/A   Partly Cloudy
5:53 PM 48.9 °F - 30.0 °F 48% 30.01 in 10.0 mi West 15.0 mph 32.2 mph 0.00 in   Scattered Clouds
6:53 PM 46.0 °F 39.3 °F 27.0 °F 47% 30.04 in 10.0 mi West 16.1 mph 24.2 mph N/A   Scattered Clouds
7:53 PM 45.0 °F 42.6 °F 27.0 °F 49% 30.01 in 10.0 mi WNW 4.6 mph - N/A   Clear
8:53 PM 41.0 °F - 27.0 °F 57% 30.03 in 10.0 mi Calm Calm - N/A   Clear
9:53 PM 36.0 °F 33.3 °F 28.0 °F 73% 30.06 in 10.0 mi NNE 3.5 mph - N/A   Clear
10:53 PM 35.1 °F - 28.0 °F 76% 30.07 in 10.0 mi Calm Calm - N/A   Clear
11:53 PM 33.1 °F - 28.0 °F 82% 30.10 in 10.0 mi Calm Calm - N/A   Clear